Seattle Weather Center

Moon Phase Calendar



Online Cameras

 


      

Current Conditions in Seattle
7/24/2024 2:41:47 AM

54°F
Feels Like 53
Clouds
Humidity
78%
Pressure
30.09"
Wind
2 mph (E)
Dew Point
48°F
UV Index
0/10 (Low)
Visibility
6 mi

Hourly Forecast

Date & Time Wed, Jul 24
2:00 AM
Wed, Jul 24
3:00 AM
Wed, Jul 24
4:00 AM
Wed, Jul 24
5:00 AM
Wed, Jul 24
6:00 AM
Wed, Jul 24
7:00 AM
Wed, Jul 24
8:00 AM
Wed, Jul 24
9:00 AM
Wed, Jul 24
10:00 AM
Wed, Jul 24
11:00 AM
Wed, Jul 24
12:00 PM
Wed, Jul 24
1:00 PM
Wed, Jul 24
2:00 PM
Wed, Jul 24
3:00 PM
Wed, Jul 24
4:00 PM
Wed, Jul 24
5:00 PM
Wed, Jul 24
6:00 PM
Wed, Jul 24
7:00 PM
Wed, Jul 24
8:00 PM
Wed, Jul 24
9:00 PM
Wed, Jul 24
10:00 PM
Wed, Jul 24
11:00 PM
Thu, Jul 25
12:00 AM
Thu, Jul 25
1:00 AM
Thu, Jul 25
2:00 AM
Thu, Jul 25
3:00 AM
Thu, Jul 25
4:00 AM
Thu, Jul 25
5:00 AM
Thu, Jul 25
6:00 AM
Thu, Jul 25
7:00 AM
Thu, Jul 25
8:00 AM
Thu, Jul 25
9:00 AM
Thu, Jul 25
10:00 AM
Thu, Jul 25
11:00 AM
Thu, Jul 25
12:00 PM
Thu, Jul 25
1:00 PM
Thu, Jul 25
2:00 PM
Thu, Jul 25
3:00 PM
Thu, Jul 25
4:00 PM
Thu, Jul 25
5:00 PM
Thu, Jul 25
6:00 PM
Thu, Jul 25
7:00 PM
Thu, Jul 25
8:00 PM
Thu, Jul 25
9:00 PM
Thu, Jul 25
10:00 PM
Thu, Jul 25
11:00 PM
Fri, Jul 26
12:00 AM
Fri, Jul 26
1:00 AM
Condition
Clouds

Clouds

Clouds

Clouds

Clear

Clear

Clear

Clear

Clear

Clear

Clear

Clear

Clouds

Clouds

Clouds

Clouds

Clouds

Clouds

Clouds

Clouds

Clouds

Clouds

Clouds

Clouds

Clouds

Clouds

Clouds

Clouds

Clouds

Clouds

Clouds

Clouds

Clouds

Clouds

Clouds

Clouds

Clouds

Clouds

Clouds

Clouds

Clouds

Clouds

Clouds

Clouds

Clouds

Clouds

Clear

Clear
Temperature 54°F54°F54°F53°F53°F55°F60°F64°F68°F72°F75°F78°F80°F80°F79°F75°F73°F70°F66°F61°F60°F60°F61°F59°F57°F56°F56°F54°F55°F55°F57°F59°F61°F64°F66°F71°F76°F76°F73°F71°F70°F68°F65°F60°F57°F55°F54°F53°F
Feels Like 53°F53°F53°F52°F52°F54°F59°F63°F67°F71°F74°F77°F80°F80°F78°F74°F72°F69°F65°F60°F59°F59°F59°F57°F55°F55°F55°F53°F54°F54°F56°F58°F60°F62°F65°F70°F75°F75°F72°F70°F69°F67°F63°F58°F55°F54°F52°F51°F
Cloudiness 17%16%15%14%6%4%0%0%0%0%0%0%12%19%23%28%77%61%58%48%60%68%100%100%93%94%94%93%92%91%92%93%94%94%100%85%67%58%61%63%38%49%37%28%22%19%0%0%
Visibility 6 mi6 mi6 mi6 mi6 mi6 mi6 mi6 mi6 mi6 mi6 mi6 mi6 mi6 mi6 mi6 mi6 mi6 mi6 mi6 mi6 mi6 mi6 mi6 mi6 mi6 mi6 mi6 mi6 mi6 mi6 mi6 mi6 mi6 mi6 mi6 mi6 mi6 mi6 mi6 mi6 mi6 mi6 mi6 mi6 mi6 mi6 mi6 mi
Precipitation 0%0%0%0%0%0%0%0%0%0%0%0%0%0%0%0%0%0%0%0%0%0%0%0%0%0%0%0%0%0%0%0%0%0%0%0%0%0%0%0%0%0%0%0%0%0%0%0%
Humidity 78%78%79%82%84%78%68%58%48%42%38%37%37%35%34%41%44%49%58%69%68%67%64%67%72%75%77%84%84%82%78%72%67%58%52%43%35%34%36%39%40%43%52%62%69%73%78%82%
Dew Point 48°F48°F48°F48°F48°F49°F49°F49°F48°F47°F47°F49°F51°F50°F48°F48°F49°F49°F51°F50°F49°F48°F48°F47°F47°F48°F48°F49°F49°F49°F49°F49°F49°F48°F47°F47°F46°F45°F45°F45°F44°F44°F46°F46°F46°F46°F46°F46°F
Pressure 30.09"30.09"30.09"30.09"30.12"30.12"30.12"30.09"30.09"30.06"30.06"30.03"30.03"30"30"30"30.03"30.03"30.03"30.06"30.09"30.09"30.12"30.12"30.15"30.15"30.18"30.18"30.18"30.21"30.21"30.21"30.21"30.21"30.21"30.21"30.18"30.15"30.15"30.15"30.12"30.12"30.12"30.12"30.12"30.15"30.15"30.15"
Wind Speed 1.1 mph0.9 mph1.1 mph1.3 mph2.4 mph3.5 mph4.5 mph4.8 mph5.2 mph5.5 mph5.8 mph5.8 mph7.1 mph9.2 mph7.3 mph7 mph8 mph6.8 mph6.4 mph6.5 mph7.8 mph7.5 mph6.7 mph6.5 mph5.3 mph5 mph5.1 mph4.7 mph5.1 mph5.8 mph6.4 mph6.3 mph5.4 mph5.1 mph4.9 mph3.8 mph0.9 mph3.1 mph7.7 mph9.8 mph9.9 mph9 mph7.6 mph6.4 mph5.4 mph4.7 mph3.9 mph3 mph
Wind
Direction
72°
ENE
123°
ESE
153°
SSE
169°
S
164°
SSE
191°
S
197°
SSW
197°
SSW
199°
SSW
196°
SSW
207°
SSW
218°
SW
223°
SW
237°
WSW
253°
WSW
307°
NW
333°
NNW

N
41°
NE
77°
ENE
96°
E
105°
ESE
126°
SE
131°
SE
142°
SE
156°
SSE
186°
S
195°
SSW
192°
SSW
190°
S
186°
S
184°
S
176°
S
170°
S
181°
S
187°
S
219°
SW
320°
NW
324°
NW
336°
NNW
351°
N
354°
N
355°
N
13°
NNE
41°
NE
44°
NE
64°
ENE
46°
NE

Daily Forecast

Date High Low Precip. Humidity
Today
Jul 24

Clear
80 °F
53 °F
0%
37%
Thursday
Jul 25

Clouds
76 °F
54 °F
0%
43%
Friday
Jul 26

Clear
78 °F
50 °F
0%
35%
Saturday
Jul 27

Clear
83 °F
54 °F
0%
28%
Sunday
Jul 28

Clouds
77 °F
57 °F
0%
48%
Monday
Jul 29

Rain
64 °F
59 °F
100%
97%
Tuesday
Jul 30

Rain
74 °F
57 °F
20%
60%
Wednesday
Jul 31

Clear
79 °F
60 °F
0%
45%
Thursday
Aug 1

Clear
85 °F
58 °F
0%
38%
Friday
Aug 2

Clouds
82 °F
59 °F
0%
36%
Saturday
Aug 3

Clear
86 °F
58 °F
0%
26%
Sunday
Aug 4

Clear
93 °F
60 °F
0%
24%
Monday
Aug 5

Clear
84 °F
60 °F
0%
29%
Tuesday
Aug 6

Clear
84 °F
56 °F
0%
33%
Wednesday
Aug 7

Clear
83 °F
57 °F
0%
36%
Thursday
Aug 8

Clouds
79 °F
58 °F
0%
43%

Temperature 8-14 Day Outlook



Precipitation 8-14 Day Outlook






About Us
Contact Us
Site Map
Search Site
Advertise With Us
   
Seattle.USCoast.info
THE SEATTLE WEBSITE

Copyright 2024, Coastal Town
Privacy    |    Legal